TimeAKST,TemperatureF,Dew PointF,Humidity,Sea Level PressureIn,VisibilityMPH,Wind Direction,Wind SpeedMPH,Gust SpeedMPH,PrecipitationIn,Events,Conditions,WindDirDegrees,DateUTC
12:54 AM,34.0,33.1,96,29.79,10.0,Calm,Calm,-,0.02,Rain,Light Rain,0,2012-12-31 09:54:00
1:10 AM,33.8,33.8,100,29.78,9.0,SE,3.5,-,0.00,Rain,Light Rain,140,2012-12-31 10:10:00
1:54 AM,34.0,34.0,100,29.80,9.0,Calm,Calm,-,0.00,Rain,Light Rain,0,2012-12-31 10:54:00
2:12 AM,33.8,33.8,100,29.79,10.0,Calm,Calm,-,0.00,Rain,Light Rain,0,2012-12-31 11:12:00
2:54 AM,34.0,32.0,92,29.82,7.0,WNW,5.8,-,0.00,,Overcast,300,2012-12-31 11:54:00
3:15 AM,33.8,33.8,100,29.82,6.0,WNW,3.5,-,N/A,,Overcast,300,2012-12-31 12:15:00
3:54 AM,34.0,34.0,100,29.82,10.0,East,4.6,-,N/A,,Overcast,100,2012-12-31 12:54:00
4:09 AM,37.4,35.6,93,29.82,10.0,ENE,6.9,-,N/A,,Overcast,70,2012-12-31 13:09:00
4:32 AM,33.8,33.8,100,29.84,10.0,WNW,10.4,-,N/A,,Overcast,300,2012-12-31 13:32:00
4:41 AM,33.8,33.8,100,29.84,6.0,West,8.1,-,0.00,Rain,Light Rain,280,2012-12-31 13:41:00
4:49 AM,33.8,33.8,100,29.85,2.5,WNW,9.2,-,0.00,Rain,Light Rain,290,2012-12-31 13:49:00
4:54 AM,34.0,33.1,96,29.86,2.5,WNW,8.1,-,0.00,,Overcast,300,2012-12-31 13:54:00
5:04 AM,33.8,33.8,100,29.86,4.0,WNW,9.2,-,0.00,,Overcast,300,2012-12-31 14:04:00
5:13 AM,33.8,33.8,100,29.86,3.0,WNW,9.2,-,0.00,,Overcast,290,2012-12-31 14:13:00
5:24 AM,33.8,33.8,100,29.87,4.0,WNW,6.9,-,0.00,,Overcast,300,2012-12-31 14:24:00
5:38 AM,33.8,33.8,100,29.88,5.0,Calm,Calm,-,0.00,,Overcast,0,2012-12-31 14:38:00
5:54 AM,34.0,33.1,96,29.89,7.0,Calm,Calm,-,0.00,,Overcast,0,2012-12-31 14:54:00
6:16 AM,33.8,33.8,100,29.90,3.0,Variable,3.5,-,N/A,,Overcast,0,2012-12-31 15:16:00
6:25 AM,33.8,32.0,93,29.91,2.0,WNW,9.2,-,0.00,,Overcast,290,2012-12-31 15:25:00
6:32 AM,33.8,33.8,100,29.91,1.8,WNW,8.1,-,0.00,,Overcast,300,2012-12-31 15:32:00
6:41 AM,33.8,33.8,100,29.91,2.0,WNW,8.1,-,0.00,,Overcast,290,2012-12-31 15:41:00
6:54 AM,33.1,33.1,100,29.93,2.0,WNW,10.4,-,0.00,,Overcast,290,2012-12-31 15:54:00
7:25 AM,33.8,33.8,100,29.93,3.0,WNW,5.8,-,0.00,,Overcast,290,2012-12-31 16:25:00
7:32 AM,33.8,33.8,100,29.94,4.0,WNW,5.8,-,0.00,,Overcast,290,2012-12-31 16:32:00
7:51 AM,33.8,33.8,100,29.95,7.0,Calm,Calm,-,0.00,,Overcast,0,2012-12-31 16:51:00
7:54 AM,34.0,33.1,96,29.96,5.0,Calm,Calm,-,0.00,,Overcast,0,2012-12-31 16:54:00
8:03 AM,33.8,33.8,100,29.96,2.5,Calm,Calm,-,N/A,,Overcast,0,2012-12-31 17:03:00
8:16 AM,33.8,33.8,100,29.97,3.0,Calm,Calm,-,N/A,,Overcast,0,2012-12-31 17:16:00
8:25 AM,33.8,33.8,100,29.98,2.5,Calm,Calm,-,0.00,,Overcast,0,2012-12-31 17:25:00
8:41 AM,33.8,33.8,100,30.00,3.0,West,5.8,-,0.00,,Overcast,270,2012-12-31 17:41:00
8:54 AM,34.0,33.1,96,30.02,3.0,NW,3.5,-,0.00,,Overcast,310,2012-12-31 17:54:00
9:40 AM,33.8,33.8,100,30.04,10.0,West,5.8,-,0.00,,Overcast,280,2012-12-31 18:40:00
9:54 AM,34.0,33.1,96,30.06,10.0,NW,4.6,-,0.00,,Overcast,310,2012-12-31 18:54:00
10:54 AM,35.1,34.0,96,30.09,10.0,Variable,3.5,-,N/A,,Overcast,0,2012-12-31 19:54:00
11:54 AM,34.0,32.0,92,30.13,10.0,West,6.9,-,N/A,,Overcast,280,2012-12-31 20:54:00
12:43 PM,33.8,33.8,100,30.14,10.0,NW,6.9,-,N/A,,Overcast,310,2012-12-31 21:43:00
12:54 PM,34.0,34.0,100,30.15,10.0,Calm,Calm,-,N/A,,Overcast,0,2012-12-31 21:54:00
1:02 PM,33.8,32.0,93,30.15,10.0,WNW,6.9,-,N/A,,Overcast,290,2012-12-31 22:02:00
1:54 PM,34.0,34.0,100,30.16,10.0,Variable,3.5,-,N/A,,Overcast,0,2012-12-31 22:54:00
2:54 PM,33.1,32.0,96,30.19,10.0,WNW,10.4,-,N/A,,Overcast,290,2012-12-31 23:54:00
3:54 PM,33.1,32.0,96,30.22,10.0,NW,9.2,-,0.00,,Overcast,310,2013-01-01 00:54:00
4:54 PM,33.1,32.0,96,30.22,10.0,NW,11.5,-,0.00,,Overcast,310,2013-01-01 01:54:00
5:54 PM,33.1,33.1,100,30.24,10.0,West,5.8,-,0.00,,Overcast,280,2013-01-01 02:54:00
6:21 PM,33.8,32.0,93,30.25,10.0,NW,6.9,-,0.00,,Overcast,320,2013-01-01 03:21:00
6:54 PM,33.1,32.0,96,30.26,10.0,Variable,3.5,-,0.00,,Overcast,0,2013-01-01 03:54:00
7:54 PM,37.9,36.0,93,30.25,10.0,East,8.1,-,N/A,,Overcast,80,2013-01-01 04:54:00
8:54 PM,37.9,35.1,89,30.25,10.0,East,6.9,-,N/A,,Overcast,80,2013-01-01 05:54:00
9:54 PM,39.0,35.1,86,30.26,10.0,Variable,4.6,-,N/A,,Overcast,0,2013-01-01 06:54:00
10:52 PM,39.2,33.8,81,30.23,10.0,Variable,4.6,-,N/A,,Overcast,0,2013-01-01 07:52:00
10:54 PM,39.0,34.0,82,30.24,10.0,East,4.6,-,N/A,,Overcast,100,2013-01-01 07:54:00
11:54 PM,39.0,34.0,82,30.23,10.0,ENE,8.1,-,N/A,,Overcast,70,2013-01-01 08:54:00